Weather History for KCMA - July, 2013

Change the Weather History Date:

Saturday, July 20, 2013

  Actual Average Record
Temperature  
Mean Temperature 70 °F 67 °F  
Max Temperature 79 °F 76 °F 88 °F (1960)
Min Temperature 60 °F 58 °F 51 °F (1996)
Degree Days  
Heating Degree Days 0 0  
Month to date heating degree days 0 1  
Since 1 June heating degree days 0 44  
Since 1 July heating degree days 0 1  
Cooling Degree Days 5 3  
Month to date cooling degree days 162 43  
Year to date cooling degree days 414 97  
Since 1 June cooling degree days 308 66  
Growing Degree Days 20 (Base 50)    
Moisture  
Dew Point 58 °F    
Average Humidity 66    
Maximum Humidity 78    
Minimum Humidity 54    
Precipitation  
Precipitation 0.00 in 0.00 in 0.00 in (2015)
Month to date precipitation T 0.01  
Year to date precipitation 2.15 10.99  
Since 1 July precipitation T  
Sea Level Pressure  
Sea Level Pressure 29.87 in    
Wind  
Wind Speed 4 mph (WSW)    
Max Wind Speed 13 mph    
Max Gust Speed 17 mph    
Visibility 8 miles    
Events      
T = Trace of Precipitation, MM = Missing Value Source: NWS Daily Summary

Daily Weather History Graph

Daily Weather History Graph

Search for Another Location

Airport or City:

Trip Planner

Search our weather history database for the weather conditions in past years. The results will help you decide how hot, cold, wet, or windy it might be!

Date:

Astronomy

Jul. 20, 2013 Rise Set
Actual Time 5:59 AM PDT 8:05 PM PDT
Civil Twilight 5:30 AM PDT 8:34 PM PDT
Nautical Twilight 4:56 AM PDT 9:08 PM PDT
Astronomical Twilight 4:19 AM PDT 9:45 PM PDT
Moon 6:14 PM PDT (7/20) 3:44 AM PDT (7/20)
Length of Visible Light 15h 03m
Length of Day
14h 06m
Waxing Gibbous, 94% of the Moon is Illuminated
Jul 20
Waxing Gibbous
Jul 22
Full
Jul 29
Last Quarter
Aug 6
New
Aug 14
First Quarter

Hourly Weather History & Observations

Time (PDT) Temp. Dew Point Humidity Pressure Visibility Wind Dir Wind Speed Gust Speed Precip Events Conditions
12:55 AM 63.0 °F 55.9 °F 78% 29.89 in 7.0 mi Calm Calm - N/A   Clear
1:55 AM 63.0 °F 55.9 °F 78% 29.89 in 7.0 mi Calm Calm - N/A   Clear
2:55 AM 63.0 °F 55.0 °F 75% 29.88 in 7.0 mi Calm Calm - N/A   Clear
3:55 AM 63.0 °F 55.0 °F 75% 29.87 in 7.0 mi Calm Calm - N/A   Clear
4:55 AM 62.1 °F 55.0 °F 78% 29.87 in 7.0 mi Calm Calm - N/A   Clear
5:55 AM 61.0 °F 54.0 °F 78% 29.87 in 7.0 mi Calm Calm - N/A   Clear
6:28 AM 62.6 °F 53.6 °F 72% 29.85 in 6.0 mi Calm Calm - N/A   Haze
6:55 AM 64.0 °F 57.0 °F 78% 29.88 in 4.0 mi Calm Calm - N/A   Haze
7:22 AM 64.4 °F 57.2 °F 77% 29.87 in 4.0 mi East 5.8 mph - N/A   Haze
7:55 AM 66.0 °F 55.9 °F 70% 29.91 in 6.0 mi NE 6.9 mph - N/A   Haze
8:55 AM 70.0 °F 57.9 °F 65% 29.91 in 7.0 mi Calm Calm - N/A   Clear
9:55 AM 72.0 °F 57.9 °F 61% 29.90 in 7.0 mi Calm Calm - N/A   Scattered Clouds
10:55 AM 73.9 °F 60.1 °F 62% 29.90 in 6.0 mi WSW 5.8 mph - N/A   Haze
11:55 AM 75.0 °F 60.1 °F 60% 29.89 in 5.0 mi SW 5.8 mph - N/A   Haze
12:55 PM 78.1 °F 61.0 °F 56% 29.87 in 6.0 mi SW 10.4 mph - N/A   Haze
1:55 PM 78.1 °F 61.0 °F 56% 29.87 in 7.0 mi SSW 12.7 mph - N/A   Clear
2:55 PM 77.0 °F 61.0 °F 58% 29.87 in 8.0 mi SW 10.4 mph - N/A   Clear
3:55 PM 77.0 °F 61.0 °F 58% 29.86 in 7.0 mi SW 10.4 mph - N/A   Partly Cloudy
4:55 PM 75.9 °F 61.0 °F 60% 29.83 in 9.0 mi WSW 8.1 mph - N/A   Clear
5:55 PM 75.0 °F 60.1 °F 60% 29.81 in 10.0 mi West 8.1 mph - N/A   Clear
6:55 PM 73.0 °F 60.1 °F 64% 29.82 in 9.0 mi SW 5.8 mph - N/A   Clear
7:55 PM 71.1 °F 59.0 °F 66% 29.84 in 10.0 mi WSW 6.9 mph - N/A   Clear
8:32 PM 69.8 °F 59.0 °F 68% 29.83 in 10.0 mi West 8.1 mph - N/A   Mostly Cloudy
8:55 PM 69.1 °F 59.0 °F 70% 29.86 in 10.0 mi West 6.9 mph - N/A   Overcast
9:55 PM 68.0 °F 57.9 °F 70% 29.87 in 10.0 mi Calm Calm - N/A   Overcast
10:52 PM 68.0 °F 57.2 °F 68% 29.83 in 10.0 mi Calm Calm - N/A   Scattered Clouds
10:55 PM 68.0 °F 57.9 °F 70% 29.86 in 10.0 mi Calm Calm - N/A   Partly Cloudy
11:55 PM 69.1 °F 59.0 °F 70% 29.86 in 10.0 mi Calm Calm - N/A   Clear